Hourly Weather Lanzhou

Today, 8 July, Wednesday

Time Temperature Precipitation Wind Pressure Humidity
00:00 +25°C° 0 mm 2 mps 620 mmHg 42%
01:00 +25°C° 0 mm 2 mps 620 mmHg 44%
02:00 +24°C° 0 mm 2 mps 619 mmHg 47%
03:00 +23°C° 0 mm 1 mps 619 mmHg 51%
04:00 +23°C° 0 mm 1 mps 619 mmHg 54%
05:00 +24°C° 0 mm 1 mps 619 mmHg 52%
06:00 +24°C° 0 mm 1 mps 620 mmHg 51%
07:00 +25°C° 0 mm 1 mps 621 mmHg 49%
08:00 +26°C° 0 mm 1 mps 621 mmHg 48%
09:00 +26°C° 0 mm 1 mps 621 mmHg 46%
10:00 +27°C° 0 mm 1 mps 621 mmHg 45%
11:00 +28°C° 0 mm 2 mps 621 mmHg 41%
12:00 +29°C° 0 mm 3 mps 620 mmHg 38%
13:00 +30°C° 0 mm 5 mps 621 mmHg 36%
14:00 +29°C° 0 mm 4 mps 621 mmHg 37%
15:00 +28°C° 0 mm 3 mps 621 mmHg 38%
16:00 +28°C° 0 mm 2 mps 620 mmHg 39%
17:00 +27°C° 0 mm 2 mps 620 mmHg 41%
18:00 +27°C° 0 mm 2 mps 621 mmHg 42%
19:00 +26°C° 0 mm 1 mps 621 mmHg 44%
20:00 +26°C° 0 mm 1 mps 621 mmHg 46%
21:00 +25°C° 0 mm 2 mps 621 mmHg 47%
22:00 +24°C° 0 mm 2 mps 621 mmHg 49%
23:00 +24°C° 0 mm 2 mps 620 mmHg 49%

Tomorrow, 9 July, Thursday

Time Temperature Precipitation Wind Pressure Humidity
00:00 +24°C° 0 mm 2 mps 620 mmHg 49%
01:00 +24°C° 0 mm 2 mps 620 mmHg 49%
02:00 +24°C° 0 mm 2 mps 619 mmHg 50%
03:00 +23°C° 0 mm 1 mps 619 mmHg 51%
04:00 +23°C° 0 mm 1 mps 619 mmHg 52%
05:00 +24°C° 0 mm 1 mps 619 mmHg 51%
06:00 +24°C° 0 mm 1 mps 619 mmHg 49%
07:00 +25°C° 0 mm 1 mps 619 mmHg 47%
08:00 +26°C° 0 mm 2 mps 620 mmHg 44%
09:00 +27°C° 0 mm 2 mps 620 mmHg 40%
10:00 +28°C° 0 mm 3 mps 620 mmHg 37%
11:00 +28°C° 0 mm 2 mps 620 mmHg 35%
12:00 +29°C° 0 mm 2 mps 620 mmHg 33%
13:00 +29°C° 0 mm 2 mps 619 mmHg 32%
14:00 +29°C° 0 mm 3 mps 619 mmHg 31%
15:00 +29°C° 0 mm 3 mps 619 mmHg 31%
16:00 +29°C° 0 mm 4 mps 619 mmHg 31%
17:00 +28°C° 0 mm 5 mps 619 mmHg 33%
18:00 +27°C° 0 mm 5 mps 619 mmHg 35%
19:00 +26°C° 0 mm 6 mps 618 mmHg 36%
20:00 +25°C° 0 mm 5 mps 619 mmHg 40%
21:00 +23°C° 0 mm 4 mps 619 mmHg 44%
22:00 +23°C° 0 mm 2 mps 619 mmHg 48%
23:00 +21°C° 0.1 mm 3 mps 619 mmHg 53%

Day after tomorrow, 10 July, Friday

Time Temperature Precipitation Wind Pressure Humidity
00:00 +21°C° 0.1 mm 3 mps 618 mmHg 57%
01:00 +20°C° 0.1 mm 3 mps 618 mmHg 62%
02:00 +20°C° 0 mm 3 mps 618 mmHg 64%
03:00 +19°C° 0 mm 2 mps 617 mmHg 65%
04:00 +19°C° 0 mm 2 mps 617 mmHg 67%
05:00 +19°C° 0 mm 2 mps 617 mmHg 64%
06:00 +20°C° 0 mm 2 mps 617 mmHg 62%
07:00 +21°C° 0 mm 2 mps 618 mmHg 59%
08:00 +23°C° 0 mm 2 mps 618 mmHg 53%
09:00 +25°C° 0 mm 1 mps 618 mmHg 47%
10:00 +26°C° 0 mm 1 mps 618 mmHg 41%
11:00 +28°C° 0 mm 2 mps 618 mmHg 38%
12:00 +29°C° 0 mm 2 mps 618 mmHg 36%
13:00 +31°C° 0 mm 3 mps 618 mmHg 33%
14:00 +31°C° 0 mm 3 mps 618 mmHg 32%
15:00 +33°C° 0 mm 4 mps 617 mmHg 31%
16:00 +33°C° 0 mm 5 mps 617 mmHg 30%
17:00 +32°C° 0 mm 4 mps 617 mmHg 32%
18:00 +32°C° 0 mm 4 mps 617 mmHg 34%
19:00 +30°C° 0 mm 4 mps 617 mmHg 36%
20:00 +28°C° 0.4 mm 3 mps 617 mmHg 42%
21:00 +27°C° 0.4 mm 2 mps 617 mmHg 48%
22:00 +26°C° 0.4 mm 1 mps 617 mmHg 54%
23:00 +26°C° 0.2 mm 1 mps 617 mmHg 56%

11 July, Saturday

Time Temperature Precipitation Wind Pressure Humidity
00:00 +25°C° 0.2 mm 1 mps 616 mmHg 57%
01:00 +25°C° 0.2 mm 1 mps 616 mmHg 58%
02:00 +24°C° 0.4 mm 1 mps 616 mmHg 62%
03:00 +24°C° 0.4 mm 1 mps 615 mmHg 65%
04:00 +23°C° 0.4 mm 1 mps 615 mmHg 68%
05:00 +21°C° 1 mm 2 mps 615 mmHg 70%
06:00 +20°C° 1 mm 3 mps 615 mmHg 72%
07:00 +19°C° 1 mm 4 mps 615 mmHg 74%
08:00 +18°C° 1.7 mm 3 mps 615 mmHg 78%
09:00 +17°C° 1.7 mm 3 mps 615 mmHg 82%
10:00 +17°C° 1.7 mm 3 mps 615 mmHg 86%
11:00 +16°C° 2.4 mm 3 mps 616 mmHg 87%
12:00 +16°C° 2.4 mm 3 mps 616 mmHg 87%
13:00 +16°C° 2.4 mm 3 mps 616 mmHg 88%
14:00 +16°C° 1.8 mm 3 mps 617 mmHg 88%
15:00 +17°C° 1.8 mm 3 mps 617 mmHg 88%
16:00 +17°C° 1.8 mm 3 mps 618 mmHg 88%
17:00 +17°C° 0.4 mm 3 mps 618 mmHg 85%
18:00 +17°C° 0.4 mm 3 mps 618 mmHg 82%
19:00 +17°C° 0.4 mm 2 mps 619 mmHg 80%
20:00 +17°C° 0 mm 2 mps 619 mmHg 80%
21:00 +17°C° 0 mm 2 mps 619 mmHg 80%
22:00 +17°C° 0 mm 2 mps 619 mmHg 80%
23:00 +18°C° 0 mm 1 mps 619 mmHg 80%

12 July, Sunday

Time Temperature Precipitation Wind Pressure Humidity
00:00 +18°C° 0 mm 1 mps 618 mmHg 80%
01:00 +18°C° 0 mm 1 mps 618 mmHg 80%
02:00 +16°C° 0 mm 1 mps 617 mmHg 82%
03:00 +16°C° 0 mm 1 mps 617 mmHg 83%
04:00 +15°C° 0 mm 1 mps 617 mmHg 85%
05:00 +16°C° 0 mm 1 mps 617 mmHg 81%
06:00 +18°C° 0 mm 1 mps 617 mmHg 77%
07:00 +18°C° 0 mm 1 mps 617 mmHg 72%
08:00 +20°C° 0 mm 1 mps 618 mmHg 65%
09:00 +21°C° 0 mm 2 mps 618 mmHg 58%
10:00 +23°C° 0 mm 2 mps 618 mmHg 51%
11:00 +25°C° 0 mm 2 mps 618 mmHg 45%
12:00 +26°C° 0 mm 2 mps 618 mmHg 40%
13:00 +28°C° 0 mm 2 mps 618 mmHg 35%
14:00 +28°C° 0 mm 2 mps 618 mmHg 33%
15:00 +29°C° 0 mm 3 mps 618 mmHg 31%
16:00 +30°C° 0 mm 3 mps 618 mmHg 29%
17:00 +28°C° 0 mm 3 mps 618 mmHg 34%
18:00 +27°C° 0 mm 4 mps 618 mmHg 38%
19:00 +26°C° 0 mm 4 mps 617 mmHg 42%
20:00 +25°C° 0 mm 4 mps 618 mmHg 47%
21:00 +24°C° 0 mm 3 mps 618 mmHg 52%
22:00 +23°C° 0 mm 2 mps 618 mmHg 57%
23:00 +21°C° 0 mm 2 mps 618 mmHg 61%

13 July, Monday

Time Temperature Precipitation Wind Pressure Humidity
00:00 +21°C° 0 mm 2 mps 618 mmHg 64%
01:00 +20°C° 0 mm 2 mps 618 mmHg 67%
02:00 +21°C° 0 mm 1 mps 618 mmHg 70%
03:00 +20°C° 0 mm 1 mps 618 mmHg 72%
04:00 +20°C° 0 mm 1 mps 618 mmHg 74%
05:00 +20°C° 0 mm 1 mps 618 mmHg 71%
06:00 +21°C° 0 mm 1 mps 618 mmHg 68%
07:00 +22°C° 0 mm 1 mps 619 mmHg 66%
08:00 +23°C° 0 mm 1 mps 619 mmHg 60%
09:00 +24°C° 0 mm 1 mps 619 mmHg 54%
10:00 +26°C° 0 mm 1 mps 620 mmHg 48%
11:00 +27°C° 0 mm 1 mps 620 mmHg 43%
12:00 +27°C° 0 mm 1 mps 620 mmHg 39%
13:00 +28°C° 0 mm 2 mps 620 mmHg 34%
14:00 +29°C° 0 mm 2 mps 620 mmHg 32%
15:00 +29°C° 0 mm 2 mps 620 mmHg 31%
16:00 +30°C° 0 mm 2 mps 620 mmHg 29%
17:00 +29°C° 0 mm 2 mps 620 mmHg 33%
18:00 +28°C° 0 mm 2 mps 620 mmHg 36%
19:00 +27°C° 0 mm 3 mps 620 mmHg 40%
20:00 +26°C° 0 mm 2 mps 620 mmHg 43%
21:00 +25°C° 0 mm 2 mps 620 mmHg 45%
22:00 +25°C° 0 mm 2 mps 620 mmHg 47%
23:00 +24°C° 0 mm 1 mps 620 mmHg 49%
Show more